When you browse on this site, cookies collect data to enhance your experience and personalize the content and advertising you see.
Visit our Privacy Policy to learn more. By continuing to use the site, you agree to this use of cookies and data.
  • In Hungary
  • List of Countries
  • For 7 days
  • Water Temperature
  • Weather Map
  • News
  • Weather Widgets
  • user-avatar
    Login

    Hourly Weather Novka

    Today, 10 December, Tuesday

    Time Temperature Precipitation Wind Pressure Humidity
    00:00 +2°C° 0 mm 3 mps 739 mmHg 93%
    01:00 +1°C° 0 mm 3 mps 739 mmHg 94%
    02:00 +1°C° 0 mm 3 mps 740 mmHg 96%
    03:00 +1°C° 0 mm 3 mps 740 mmHg 96%
    04:00 0°C° 0 mm 3 mps 740 mmHg 96%
    05:00 0°C° 0 mm 3 mps 740 mmHg 96%
    06:00 0°C° 0 mm 3 mps 741 mmHg 96%
    07:00 0°C° 0 mm 3 mps 741 mmHg 96%
    08:00 +1°C° 0 mm 2 mps 741 mmHg 96%
    09:00 +1°C° 0 mm 3 mps 741 mmHg 95%
    10:00 +1°C° 0 mm 3 mps 741 mmHg 94%
    11:00 +2°C° 0 mm 3 mps 741 mmHg 93%
    12:00 +2°C° 0 mm 3 mps 742 mmHg 93%
    13:00 +2°C° 0 mm 3 mps 742 mmHg 94%
    14:00 +3°C° 0 mm 2 mps 742 mmHg 95%
    15:00 +2°C° 0 mm 3 mps 742 mmHg 95%
    16:00 +2°C° 0 mm 3 mps 742 mmHg 95%
    17:00 +2°C° 0 mm 3 mps 742 mmHg 96%
    18:00 +2°C° 0 mm 3 mps 743 mmHg 95%
    19:00 +1°C° 0 mm 3 mps 743 mmHg 95%
    20:00 +1°C° 0 mm 3 mps 744 mmHg 95%
    21:00 +2°C° 0 mm 2 mps 744 mmHg 95%
    22:00 +2°C° 0 mm 2 mps 744 mmHg 96%
    23:00 +2°C° 0 mm 2 mps 744 mmHg 97%

    Tomorrow, 11 December, Wednesday

    Time Temperature Precipitation Wind Pressure Humidity
    00:00 +2°C° 0 mm 2 mps 745 mmHg 96%
    01:00 +2°C° 0 mm 2 mps 746 mmHg 96%
    02:00 +2°C° 0 mm 2 mps 746 mmHg 96%
    03:00 +3°C° 0 mm 1 mps 747 mmHg 96%
    04:00 +2°C° 0 mm 1 mps 747 mmHg 96%
    05:00 +2°C° 0 mm 1 mps 747 mmHg 96%
    06:00 +2°C° 0 mm 1 mps 747 mmHg 96%
    07:00 +1°C° 0 mm 2 mps 748 mmHg 95%
    08:00 -1°C° 0 mm 2 mps 748 mmHg 94%
    09:00 -1°C° 0 mm 2 mps 749 mmHg 92%
    10:00 +1°C° 0 mm 1 mps 749 mmHg 89%
    11:00 +1°C° 0 mm 1 mps 749 mmHg 87%
    12:00 +2°C° 0 mm 1 mps 749 mmHg 87%
    13:00 +2°C° 0 mm 1 mps 749 mmHg 87%
    14:00 +2°C° 0 mm 1 mps 749 mmHg 86%
    15:00 -1°C° 0 mm 2 mps 749 mmHg 89%
    16:00 -1°C° 0 mm 2 mps 749 mmHg 91%
    17:00 -2°C° 0 mm 2 mps 749 mmHg 94%
    18:00 -2°C° 0 mm 2 mps 749 mmHg 94%
    19:00 -2°C° 0 mm 2 mps 749 mmHg 94%
    20:00 -1°C° 0 mm 2 mps 749 mmHg 94%
    21:00 -2°C° 0 mm 2 mps 749 mmHg 93%
    22:00 -2°C° 0 mm 2 mps 749 mmHg 92%
    23:00 -2°C° 0 mm 2 mps 749 mmHg 91%

    Day after tomorrow, 12 December, Thursday

    Time Temperature Precipitation Wind Pressure Humidity
    00:00 -2°C° 0 mm 2 mps 749 mmHg 89%
    01:00 -2°C° 0 mm 2 mps 749 mmHg 88%
    02:00 -2°C° 0 mm 2 mps 749 mmHg 86%
    03:00 -2°C° 0 mm 2 mps 748 mmHg 87%
    04:00 -2°C° 0 mm 3 mps 748 mmHg 89%
    05:00 -2°C° 0 mm 3 mps 747 mmHg 90%
    06:00 -1°C° 0 mm 3 mps 747 mmHg 91%
    07:00 -1°C° 0 mm 3 mps 747 mmHg 92%
    08:00 -1°C° 0 mm 4 mps 747 mmHg 93%
    09:00 -1°C° 0 mm 4 mps 747 mmHg 94%
    10:00 0°C° 0 mm 5 mps 746 mmHg 95%
    11:00 0°C° 0 mm 5 mps 746 mmHg 96%
    12:00 -1°C° 0 mm 6 mps 746 mmHg 95%
    13:00 +1°C° 0 mm 6 mps 745 mmHg 94%
    14:00 +1°C° 0 mm 6 mps 745 mmHg 93%
    15:00 +1°C° 0 mm 6 mps 745 mmHg 92%
    16:00 +1°C° 0 mm 6 mps 745 mmHg 90%
    17:00 +1°C° 0 mm 6 mps 744 mmHg 88%
    18:00 +1°C° 0 mm 6 mps 744 mmHg 88%
    19:00 +1°C° 0 mm 6 mps 744 mmHg 88%
    20:00 -1°C° 0 mm 6 mps 745 mmHg 88%
    21:00 -1°C° 0 mm 6 mps 744 mmHg 89%
    22:00 0°C° 0 mm 5 mps 744 mmHg 90%
    23:00 0°C° 0 mm 5 mps 744 mmHg 90%

    13 December, Friday

    Time Temperature Precipitation Wind Pressure Humidity
    00:00 0°C° 0 mm 5 mps 744 mmHg 90%
    01:00 0°C° 0 mm 5 mps 744 mmHg 89%
    02:00 0°C° 0 mm 5 mps 743 mmHg 89%
    03:00 0°C° 0 mm 5 mps 743 mmHg 90%
    04:00 -2°C° 0 mm 6 mps 743 mmHg 90%
    05:00 -2°C° 0 mm 6 mps 742 mmHg 91%
    06:00 -2°C° 0 mm 6 mps 742 mmHg 91%
    07:00 -2°C° 0 mm 6 mps 742 mmHg 91%
    08:00 -2°C° 0 mm 6 mps 742 mmHg 91%
    09:00 -2°C° 0 mm 6 mps 741 mmHg 89%
    10:00 -2°C° 0 mm 6 mps 741 mmHg 87%
    11:00 -2°C° 0 mm 6 mps 741 mmHg 85%
    12:00 -2°C° 0 mm 6 mps 741 mmHg 84%
    13:00 -2°C° 0 mm 6 mps 741 mmHg 84%
    14:00 -2°C° 0 mm 6 mps 741 mmHg 84%
    15:00 -2°C° 0 mm 6 mps 741 mmHg 83%
    16:00 -2°C° 0 mm 6 mps 740 mmHg 83%
    17:00 -2°C° 0 mm 6 mps 740 mmHg 83%
    18:00 -2°C° 0 mm 6 mps 740 mmHg 83%
    19:00 -2°C° 0 mm 6 mps 740 mmHg 83%
    20:00 -2°C° 0 mm 6 mps 740 mmHg 84%
    21:00 -2°C° 0 mm 6 mps 740 mmHg 83%
    22:00 -2°C° 0 mm 6 mps 740 mmHg 82%
    23:00 -2°C° 0 mm 7 mps 740 mmHg 82%

    14 December, Saturday

    Time Temperature Precipitation Wind Pressure Humidity
    00:00 -2°C° 0 mm 6 mps 741 mmHg 84%
    01:00 -3°C° 0 mm 6 mps 741 mmHg 87%
    02:00 -3°C° 0 mm 6 mps 741 mmHg 90%
    03:00 -3°C° 0 mm 6 mps 741 mmHg 87%
    04:00 -2°C° 0 mm 6 mps 740 mmHg 85%
    05:00 -2°C° 0 mm 6 mps 740 mmHg 83%
    06:00 -2°C° 0 mm 6 mps 740 mmHg 83%
    07:00 -2°C° 0 mm 6 mps 740 mmHg 84%
    08:00 -2°C° 0 mm 7 mps 740 mmHg 84%
    09:00 -2°C° 0.1 mm 7 mps 741 mmHg 87%
    10:00 -2°C° 0.1 mm 7 mps 741 mmHg 90%
    11:00 -2°C° 0.1 mm 7 mps 741 mmHg 92%
    12:00 -2°C° 0.1 mm 7 mps 741 mmHg 92%
    13:00 -2°C° 0.1 mm 6 mps 740 mmHg 92%
    14:00 -2°C° 0.1 mm 6 mps 740 mmHg 92%
    15:00 -2°C° 0 mm 7 mps 740 mmHg 91%
    16:00 -2°C° 0 mm 7 mps 740 mmHg 89%
    17:00 -2°C° 0 mm 7 mps 740 mmHg 87%
    18:00 -2°C° 0.1 mm 7 mps 739 mmHg 89%
    19:00 -2°C° 0.1 mm 7 mps 739 mmHg 91%
    20:00 -2°C° 0.1 mm 7 mps 739 mmHg 93%
    21:00 -1°C° 0.1 mm 7 mps 738 mmHg 93%
    22:00 -1°C° 0.1 mm 7 mps 738 mmHg 92%
    23:00 -1°C° 0.1 mm 7 mps 737 mmHg 92%

    15 December, Sunday

    Time Temperature Precipitation Wind Pressure Humidity
    00:00 -1°C° 0.2 mm 7 mps 737 mmHg 91%
    01:00 0°C° 0.2 mm 7 mps 736 mmHg 91%
    02:00 0°C° 0.2 mm 8 mps 735 mmHg 90%
    03:00 0°C° 0.4 mm 7 mps 735 mmHg 90%
    04:00 +2°C° 0.4 mm 7 mps 735 mmHg 89%
    05:00 +2°C° 0.4 mm 7 mps 734 mmHg 89%
    06:00 +2°C° 0 mm 6 mps 734 mmHg 90%
    07:00 +2°C° 0 mm 6 mps 734 mmHg 90%
    08:00 +1°C° 0 mm 5 mps 734 mmHg 91%
    09:00 +1°C° 0.3 mm 5 mps 734 mmHg 92%
    10:00 +1°C° 0.3 mm 5 mps 734 mmHg 93%
    11:00 +1°C° 0.3 mm 6 mps 734 mmHg 94%
    12:00 +1°C° 0.6 mm 6 mps 735 mmHg 88%
    13:00 +2°C° 0.6 mm 6 mps 735 mmHg 81%
    14:00 +2°C° 0.6 mm 6 mps 735 mmHg 74%
    15:00 +1°C° 0 mm 6 mps 736 mmHg 75%
    16:00 +1°C° 0 mm 6 mps 736 mmHg 75%
    17:00 -1°C° 0 mm 6 mps 737 mmHg 75%
    18:00 -1°C° 0 mm 6 mps 737 mmHg 76%
    19:00 -1°C° 0 mm 6 mps 738 mmHg 76%
    20:00 -1°C° 0 mm 6 mps 738 mmHg 77%
    21:00 -2°C° 0 mm 6 mps 738 mmHg 78%
    22:00 -1°C° 0 mm 5 mps 739 mmHg 80%
    23:00 -1°C° 0 mm 5 mps 739 mmHg 82%
    Show more